FW8022 Weather Reports


Display with metric or nautical units.
time (UTC)temp
F
wind
direction
speed
MPH
gust
MPH
rain 1hr
in
rain 24hr
in
rain mn
in
humidity
%
barometer
mb
20260901010058 60 228 3.0 6.0 0.00 0.00 0.00 88 1012.3
20260901005538 61 241 3.0 5.0 0.00 0.00 0.00 88 1012.2
20260901005038 61 238 2.0 5.0 0.00 0.00 0.00 87 1012.2
20260901004602 61 232 2.0 5.0 0.00 0.00 0.00 87 1012.2
20260901004037 61 222 2.0 7.0 0.00 0.00 0.00 87 1012.3
20260901003537 61 231 3.0 7.0 0.00 0.00 0.00 87 1012.4
20260901003049 61 225 4.0 8.0 0.00 0.00 0.00 87 1012.3
20260901002538 61 244 3.0 9.0 0.00 0.00 0.00 87 1012.4
20260901002038 61 217 3.0 9.0 0.00 0.00 0.00 87 1012.3
20260901001602 61 215 4.0 9.0 0.00 0.00 0.00 87 1012.3
20260901001037 61 198 4.0 9.0 0.00 0.00 0.00 87 1012.4
20260901000537 61 214 4.0 9.0 0.00 0.00 0.00 86 1012.3
20260901000103 61 251 4.0 8.0 0.00 0.00 0.00 86 1012.4
20260831235538 61 198 4.0 8.0 0.00 0.00 0.00 86 1012.4
20260831235038 61 266 3.0 8.0 0.00 0.00 0.00 86 1012.4
20260831234558 61 229 4.0 8.0 0.00 0.00 0.00 85 1012.4
20260831234039 61 183 5.0 9.0 0.00 0.00 0.00 86 1012.5
20260831233538 61 187 4.0 9.0 0.00 0.00 0.00 86 1012.5
20260831233054 61 190 4.0 9.0 0.00 0.00 0.00 86 1012.6
20260831232538 61 186 4.0 9.0 0.00 0.00 0.00 86 1012.7
20260831232037 61 227 4.0 9.0 0.00 0.00 0.00 86 1012.6
20260831231552 61 231 3.0 7.0 0.00 0.00 0.00 86 1012.6
20260831231037 61 202 3.0 8.0 0.00 0.00 0.00 86 1012.6
20260831230540 61 221 3.0 8.0 0.00 0.00 0.00 86 1012.7
20260831225538 61 245 2.0 6.0 0.00 0.00 0.00 84 1012.7
20260831225041 61 224 3.0 6.0 0.00 0.00 0.00 84 1012.8
20260831224555 62 236 2.0 6.0 0.00 0.00 0.00 84 1012.8
20260831224041 62 236 3.0 6.0 0.00 0.00 0.00 83 1012.9
20260831223540 62 219 3.0 7.0 0.00 0.00 0.00 83 1012.8
20260831223106 62 241 3.0 7.0 0.00 0.00 0.00 83 1012.8
20260831222539 62 198 4.0 7.0 0.00 0.00 0.00 83 1012.9
20260831222039 62 248 3.0 7.0 0.00 0.00 0.00 84 1012.9
20260831221554 62 232 3.0 7.0 0.00 0.00 0.00 83 1012.9
20260831221037 62 223 3.0 7.0 0.00 0.00 0.00 84 1012.9
20260831220537 62 207 3.0 7.0 0.00 0.00 0.00 83 1013.0
20260831220104 62 194 3.0 7.0 0.00 0.00 0.00 83 1013.0
20260831215537 62 228 4.0 8.0 0.00 0.00 0.00 82 1013.0
20260831215038 63 220 3.0 8.0 0.00 0.00 0.00 83 1013.0
20260831214622 62 219 4.0 8.0 0.00 0.00 0.00 84 1013.1
20260831214039 62 225 4.0 8.0 0.00 0.00 0.00 84 1013.2
20260831213537 62 249 3.0 8.0 0.00 0.00 0.00 85 1013.2
20260831213052 61 233 3.0 8.0 0.00 0.00 0.00 86 1013.3
20260831212537 61 226 4.0 7.0 0.00 0.00 0.00 86 1013.4
20260831212037 61 209 3.0 6.0 0.00 0.00 0.00 86 1013.4
20260831211602 60 216 3.0 7.0 0.00 0.00 0.00 88 1013.4
20260831211040 60 269 4.0 7.0 0.00 0.00 0.00 88 1013.6
20260831210536 60 222 3.0 6.0 0.00 0.00 0.00 88 1013.6
20260831210055 60 186 3.0 6.0 0.00 0.00 0.00 88 1013.6
20260831205536 60 232 3.0 7.0 0.00 0.00 0.00 88 1013.7
20260831205036 60 234 3.0 8.0 0.00 0.00 0.00 88 1013.7
20260831204601 60 214 3.0 8.0 0.00 0.00 0.00 88 1013.8
20260831204037 60 225 3.0 7.0 0.00 0.00 0.00 88 1013.7
20260831203544 60 232 3.0 7.0 0.00 0.00 0.00 88 1013.6
20260831203052 60 216 3.0 7.0 0.00 0.00 0.00 88 1013.6
20260831202537 60 217 3.0 7.0 0.00 0.00 0.00 88 1013.6
20260831202037 60 222 3.0 6.0 0.00 0.00 0.00 88 1013.6
20260831201559 60 182 3.0 7.0 0.00 0.00 0.00 88 1013.6
20260831201036 60 217 3.0 8.0 0.00 0.00 0.00 88 1013.6
20260831200538 60 191 4.0 8.0 0.00 0.00 0.00 88 1013.5
20260831200057 60 213 3.0 8.0 0.00 0.00 0.00 88 1013.6
20260831195537 60 222 3.0 6.0 0.00 0.00 0.00 88 1013.6
20260831195037 60 217 3.0 6.0 0.00 0.00 0.00 88 1013.6
20260831194552 60 224 4.0 6.0 0.00 0.00 0.00 89 1013.6
20260831194037 59 187 3.0 5.0 0.00 0.00 0.00 89 1013.7
20260831193542 60 233 2.0 5.0 0.00 0.00 0.00 90 1013.6
20260831193053 59 229 3.0 5.0 0.00 0.00 0.00 89 1013.7
20260831192537 59 225 2.0 6.0 0.00 0.00 0.00 90 1013.8
20260831192037 59 219 3.0 6.0 0.00 0.00 0.00 90 1013.7
20260831191601 59 231 3.0 6.0 0.00 0.00 0.00 90 1013.8
20260831191041 59 208 3.0 6.0 0.00 0.00 0.00 90 1013.7
20260831190537 59 265 3.0 6.0 0.00 0.00 0.00 90 1013.7
20260831190113 59 225 2.0 5.0 0.00 0.00 0.00 91 1013.7
20260831185538 59 225 2.0 5.0 0.00 0.00 0.00 90 1013.7
20260831185037 58 219 3.0 5.0 0.00 0.00 0.00 90 1013.7
20260831184555 59 234 2.0 6.0 0.00 0.00 0.00 91 1013.7
20260831184037 58 219 3.0 6.0 0.00 0.00 0.00 91 1013.8
20260831183537 59 246 2.0 7.0 0.00 0.00 0.00 91 1013.7
20260831183058 58 234 3.0 7.0 0.00 0.00 0.00 91 1013.7
20260831182538 58 223 3.0 6.0 0.00 0.00 0.00 91 1013.7
20260831182037 58 215 3.0 6.0 0.00 0.00 0.00 91 1013.6
20260831181553 58 217 3.0 6.0 0.00 0.00 0.00 92 1013.6
20260831181039 58 260 3.0 6.0 0.00 0.00 0.00 92 1013.6
20260831180535 58 207 2.0 6.0 0.00 0.00 0.00 93 1013.6
20260831180051 58 219 3.0 7.0 0.00 0.00 0.00 93 1013.6
20260831175537 58 223 2.0 7.0 0.00 0.00 0.00 93 1013.6
20260831175034 57 210 3.0 7.0 0.00 0.00 0.00 93 1013.7
20260831174607 58 228 3.0 6.0 0.00 0.00 0.00 94 1013.6
20260831174038 57 236 3.0 6.0 0.00 0.00 0.00 93 1013.6
20260831173540 57 205 3.0 6.0 0.00 0.00 0.00 94 1013.5
20260831173056 57 242 2.0 5.0 0.00 0.00 0.00 94 1013.6
20260831172537 57 234 2.0 6.0 0.00 0.00 0.00 94 1013.5
20260831172039 57 232 3.0 6.0 0.00 0.00 0.00 94 1013.6
20260831171602 57 211 2.0 5.0 0.00 0.00 0.00 94 1013.5
20260831171037 57 228 2.0 5.0 0.00 0.00 0.00 94 1013.4
20260831170539 57 230 2.0 6.0 0.00 0.00 0.00 94 1013.5
20260831170056 57 234 2.0 6.0 0.00 0.00 0.00 94 1013.4
20260831165536 57 227 3.0 6.0 0.00 0.00 0.00 94 1013.3
20260831165036 57 234 2.0 4.0 0.00 0.00 0.00 93 1013.2
20260831164604 57 223 2.0 5.0 0.00 0.00 0.00 93 1013.3
20260831164038 57 235 3.0 5.0 0.00 0.00 0.00 93 1013.2
20260831163537 57 200 2.0 5.0 0.00 0.00 0.00 93 1013.2
20260831163053 57 238 3.0 5.0 0.00 0.00 0.00 93 1013.2
20260831162538 57 223 2.0 6.0 0.00 0.00 0.00 93 1013.1
20260831162037 57 213 3.0 6.0 0.00 0.00 0.00 93 1013.1
20260831161551 57 234 3.0 5.0 0.00 0.00 0.00 93 1013.0
20260831161037 57 221 2.0 4.0 0.00 0.00 0.00 93 1013.0
20260831160536 57 214 2.0 6.0 0.00 0.00 0.00 93 1012.9
20260831160054 57 234 2.0 6.0 0.00 0.00 0.00 93 1013.0
20260831155539 57 233 2.0 5.0 0.00 0.00 0.00 93 1012.9
20260831155038 57 227 2.0 5.0 0.00 0.00 0.00 92 1012.8
20260831154620 57 184 2.0 5.0 0.00 0.00 0.00 92 1012.8
20260831154038 57 232 2.0 5.0 0.00 0.00 0.00 92 1012.9
20260831153538 57 237 2.0 5.0 0.00 0.00 0.00 92 1012.9
20260831153050 57 241 2.0 5.0 0.00 0.00 0.00 92 1012.8
20260831152537 57 236 2.0 5.0 0.00 0.00 0.00 92 1012.8
20260831152037 57 219 2.0 5.0 0.00 0.00 0.00 92 1012.8
20260831151556 57 232 2.0 5.0 0.00 0.00 0.00 92 1012.7
20260831151040 57 224 2.0 5.0 0.00 0.00 0.00 92 1012.7
20260831150538 57 222 2.0 5.0 0.00 0.00 0.00 92 1012.7
20260831150054 57 220 2.0 5.0 0.00 0.00 0.00 92 1012.7
20260831145537 57 195 2.0 5.0 0.00 0.00 0.00 91 1012.7
20260831145037 57 229 2.0 5.0 0.00 0.00 0.00 91 1012.6
20260831144552 57 221 2.0 5.0 0.00 0.00 0.00 91 1012.6
20260831144038 57 231 2.0 5.0 0.00 0.00 0.00 91 1012.5
20260831143537 57 227 2.0 4.0 0.00 0.00 0.00 91 1012.4
20260831143108 57 213 2.0 4.0 0.00 0.00 0.00 91 1012.4
20260831142539 57 201 2.0 5.0 0.00 0.00 0.00 91 1012.4
20260831142038 56 232 2.0 5.0 0.00 0.00 0.00 91 1012.2
20260831141604 56 236 3.0 5.0 0.00 0.00 0.00 91 1012.2
20260831141035 56 232 2.0 5.0 0.00 0.00 0.00 91 1012.2
20260831140537 57 239 2.0 5.0 0.00 0.00 0.00 91 1012.1
20260831135537 56 241 3.0 5.0 0.00 0.00 0.00 91 1012.0
20260831135036 56 229 2.0 5.0 0.00 0.00 0.00 91 1011.9
20260831134556 56 249 2.0 5.0 0.00 0.00 0.00 91 1011.9
20260831134036 56 249 2.0 5.0 0.00 0.00 0.00 91 1011.9
20260831133537 56 247 2.0 5.0 0.00 0.00 0.00 90 1011.9
20260831133054 57 247 2.0 5.0 0.00 0.00 0.00 90 1011.8
20260831132539 57 235 3.0 5.0 0.00 0.00 0.00 90 1011.8
20260831132040 57 232 2.0 6.0 0.00 0.00 0.00 90 1011.8
20260831131548 57 242 2.0 6.0 0.00 0.00 0.00 90 1011.9
20260831131037 57 219 3.0 7.0 0.00 0.00 0.00 90 1011.9
20260831130537 57 228 2.0 7.0 0.00 0.00 0.00 89 1011.9
20260831130105 57 238 3.0 7.0 0.00 0.00 0.00 89 1011.8
20260831125537 57 263 3.0 7.0 0.00 0.00 0.00 89 1011.7
20260831125037 57 232 3.0 6.0 0.00 0.00 0.00 89 1011.6
20260831124556 57 243 3.0 7.0 0.00 0.00 0.00 89 1011.7
20260831124037 57 239 3.0 7.0 0.00 0.00 0.00 89 1011.7
20260831123537 57 231 3.0 7.0 0.00 0.00 0.00 89 1011.7
20260831123052 57 238 3.0 7.0 0.00 0.00 0.00 89 1011.7
20260831122537 57 238 3.0 7.0 0.00 0.00 0.00 88 1011.7
20260831122037 57 236 4.0 7.0 0.00 0.00 0.00 89 1011.8
20260831121558 57 227 2.0 7.0 0.00 0.00 0.00 88 1011.7
20260831121037 57 240 4.0 7.0 0.00 0.00 0.00 88 1011.6
20260831120538 57 239 2.0 5.0 0.00 0.00 0.00 89 1011.5
20260831120100 57 252 3.0 6.0 0.00 0.00 0.00 89 1011.5
20260831115537 57 221 3.0 6.0 0.00 0.00 0.00 88 1011.5
20260831115036 57 227 2.0 6.0 0.00 0.00 0.00 89 1011.4
20260831114553 57 223 3.0 6.0 0.00 0.00 0.00 88 1011.5
20260831114039 57 239 3.0 7.0 0.00 0.00 0.00 88 1011.5
20260831113536 57 188 4.0 8.0 0.00 0.00 0.00 88 1011.5
20260831113110 57 252 4.0 8.0 0.00 0.00 0.00 88 1011.5
20260831112537 57 219 4.0 7.0 0.00 0.00 0.00 88 1011.5
20260831112037 57 228 3.0 6.0 0.00 0.00 0.00 88 1011.4
20260831111547 57 230 3.0 6.0 0.00 0.00 0.00 88 1011.6
20260831111037 57 215 3.0 6.0 0.00 0.00 0.00 88 1011.6
20260831110539 57 224 3.0 8.0 0.00 0.00 0.00 88 1011.6
20260831110056 57 184 4.0 8.0 0.00 0.00 0.00 88 1011.7
20260831105538 57 231 3.0 8.0 0.00 0.00 0.00 88 1011.6
20260831105037 57 211 5.0 8.0 0.00 0.00 0.00 88 1011.5
20260831104553 57 207 4.0 7.0 0.00 0.00 0.00 88 1011.5
20260831104038 57 234 3.0 7.0 0.00 0.00 0.00 88 1011.4
20260831103537 57 231 3.0 7.0 0.00 0.00 0.00 88 1011.4
20260831103056 57 249 3.0 7.0 0.00 0.00 0.00 89 1011.4
20260831102537 57 232 3.0 7.0 0.00 0.00 0.00 88 1011.3
20260831102038 57 206 3.0 7.0 0.00 0.00 0.00 88 1011.3
20260831101550 57 228 3.0 7.0 0.00 0.00 0.00 88 1011.4
20260831101037 57 210 2.0 6.0 0.00 0.00 0.00 88 1011.4
20260831100539 57 229 3.0 6.0 0.00 0.00 0.00 88 1011.3
20260831100056 57 237 3.0 7.0 0.00 0.00 0.00 88 1011.2
20260831095536 57 225 3.0 7.0 0.00 0.00 0.00 88 1011.2
20260831095036 57 202 3.0 7.0 0.00 0.00 0.00 88 1011.2
20260831094558 57 230 3.0 7.0 0.00 0.00 0.00 88 1011.2
20260831094038 57 222 4.0 8.0 0.00 0.00 0.00 88 1011.2
20260831093538 57 227 3.0 8.0 0.00 0.00 0.00 88 1011.2
20260831093051 57 237 3.0 7.0 0.00 0.00 0.00 88 1011.2
20260831092537 57 219 4.0 7.0 0.00 0.00 0.00 88 1011.2
20260831092035 57 194 3.0 7.0 0.00 0.00 0.00 88 1011.2
20260831091555 57 215 4.0 7.0 0.00 0.00 0.00 88 1011.3
20260831091038 57 219 2.0 8.0 0.00 0.00 0.00 88 1011.3
20260831090539 57 223 4.0 8.0 0.00 0.00 0.00 88 1011.3
20260831090106 57 241 4.0 8.0 0.00 0.00 0.00 88 1011.2
20260831085534 57 213 3.0 8.0 0.00 0.00 0.00 88 1011.2
20260831085037 57 177 3.0 8.0 0.00 0.00 0.00 88 1011.3
20260831084553 57 224 4.0 8.0 0.00 0.00 0.00 88 1011.2
20260831084036 57 203 2.0 6.0 0.00 0.00 0.00 88 1011.3
20260831083536 57 224 3.0 7.0 0.00 0.00 0.00 88 1011.4
20260831083049 57 222 4.0 7.0 0.00 0.00 0.00 88 1011.4
20260831082537 57 239 3.0 6.0 0.00 0.00 0.00 88 1011.5
20260831082037 57 215 3.0 6.0 0.00 0.00 0.00 88 1011.5
20260831081559 57 216 3.0 6.0 0.00 0.00 0.00 88 1011.5
20260831081036 57 200 3.0 6.0 0.00 0.00 0.00 88 1011.6
20260831080536 57 214 3.0 6.0 0.00 0.00 0.00 88 1011.6
20260831080056 57 209 3.0 7.0 0.00 0.00 0.00 88 1011.6
20260831075535 57 212 3.0 7.0 0.00 0.00 0.00 89 1011.6
20260831075033 57 227 3.0 6.0 0.00 0.00 0.00 88 1011.7
20260831074553 57 236 3.0 7.0 0.00 0.00 0.00 89 1011.7
20260831074033 57 202 4.0 7.0 0.00 0.00 0.00 89 1011.7
20260831073534 57 212 3.0 6.0 0.00 0.00 0.00 88 1011.5
20260831073058 57 236 3.0 6.0 0.00 0.00 0.00 89 1011.5
20260831072534 57 203 2.0 8.0 0.00 0.00 0.00 89 1011.6
20260831072033 57 225 3.0 8.0 0.00 0.00 0.00 88 1011.5
20260831071557 57 212 3.0 6.0 0.00 0.00 0.00 88 1011.5
20260831071035 57 188 3.0 5.0 0.00 0.00 0.00 88 1011.6
20260831070533 57 243 3.0 5.0 0.00 0.00 0.00 88 1011.7
20260831070055 57 217 2.0 5.0 0.00 0.00 0.00 88 1011.7
20260831065533 57 198 2.0 6.0 0.00 0.00 0.00 89 1011.7
20260831065033 57 224 2.0 6.0 0.00 0.00 0.00 88 1011.7
20260831064601 57 220 3.0 6.0 0.00 0.00 0.00 88 1011.7
20260831064035 57 200 2.0 7.0 0.00 0.00 0.00 89 1011.7
20260831063533 57 232 2.0 7.0 0.00 0.00 0.00 88 1011.7
20260831063054 57 211 3.0 7.0 0.00 0.00 0.00 88 1011.7
20260831062537 57 227 3.0 6.0 0.00 0.00 0.00 89 1011.8
20260831062040 57 201 3.0 6.0 0.00 0.00 0.00 89 1011.8
20260831061603 57 205 3.0 6.0 0.00 0.00 0.00 88 1011.7
20260831061033 57 209 2.0 7.0 0.00 0.00 0.00 88 1011.8
20260831060533 57 242 3.0 7.0 0.00 0.00 0.00 89 1011.8
20260831060054 57 223 3.0 6.0 0.00 0.00 0.00 89 1011.8
20260831055537 57 219 3.0 6.0 0.00 0.00 0.00 89 1011.8
20260831055034 57 196 2.0 6.0 0.00 0.00 0.00 89 1011.7
20260831054607 57 211 3.0 6.0 0.00 0.00 0.00 89 1011.7
20260831054038 57 204 3.0 5.0 0.00 0.00 0.00 89 1011.7
20260831053537 57 192 2.0 5.0 0.00 0.00 0.00 88 1011.7
20260831053057 57 225 3.0 5.0 0.00 0.00 0.00 89 1011.7
20260831052537 57 211 3.0 5.0 0.00 0.00 0.00 89 1011.7
20260831052034 57 250 2.0 6.0 0.00 0.00 0.00 89 1011.7
20260831051610 57 231 3.0 6.0 0.00 0.00 0.00 89 1011.8
20260831051033 57 215 3.0 6.0 0.00 0.00 0.00 89 1011.8
20260831050533 57 210 3.0 5.0 0.00 0.00 0.00 89 1011.8
20260831050100 57 221 3.0 5.0 0.00 0.00 0.00 89 1011.8
20260831045533 57 238 2.0 5.0 0.00 0.00 0.00 89 1011.9
20260831045035 57 202 3.0 5.0 0.00 0.00 0.00 89 1011.9
20260831044607 57 227 2.0 5.0 0.00 0.00 0.00 89 1011.8
20260831044033 57 218 3.0 6.0 0.00 0.00 0.00 89 1011.9
20260831043534 57 217 3.0 6.0 0.00 0.00 0.00 89 1011.9
20260831043053 57 243 2.0 7.0 0.00 0.00 0.00 89 1011.9
20260831042536 57 224 3.0 7.0 0.00 0.00 0.00 89 1011.8
20260831042036 57 242 3.0 5.0 0.00 0.00 0.00 89 1011.9
20260831041600 57 213 2.0 6.0 0.00 0.00 0.00 89 1011.8
20260831041037 57 221 2.0 8.0 0.00 0.00 0.00 90 1011.8
20260831040534 57 223 2.0 8.0 0.00 0.00 0.00 90 1011.8
20260831040054 57 211 3.0 8.0 0.00 0.00 0.00 90 1011.8
20260831035536 57 229 3.0 6.0 0.00 0.00 0.00 90 1011.7
20260831035036 57 225 2.0 6.0 0.00 0.00 0.00 90 1011.7
20260831034553 57 218 2.0 6.0 0.00 0.00 0.00 90 1011.7
20260831034037 57 222 2.0 6.0 0.00 0.00 0.00 91 1011.7
20260831033533 57 217 2.0 5.0 0.00 0.00 0.00 91 1011.7
20260831033052 57 229 2.0 6.0 0.00 0.00 0.00 91 1011.7
20260831032533 57 217 3.0 6.0 0.00 0.00 0.00 90 1011.6
20260831032033 57 223 3.0 5.0 0.00 0.00 0.00 90 1011.6
20260831031555 57 256 3.0 5.0 0.00 0.00 0.00 90 1011.6
20260831031032 57 186 3.0 6.0 0.00 0.00 0.00 90 1011.6
20260831030535 57 243 3.0 6.0 0.00 0.00 0.00 90 1011.6
20260831030055 57 221 3.0 6.0 0.00 0.00 0.00 90 1011.5
20260831025536 57 226 2.0 5.0 0.00 0.00 0.00 90 1011.6
20260831025033 57 234 3.0 6.0 0.00 0.00 0.00 90 1011.5
20260831024553 57 238 2.0 6.0 0.00 0.00 0.00 90 1011.5
20260831024035 57 230 3.0 7.0 0.00 0.00 0.00 90 1011.5
20260831023533 57 199 3.0 7.0 0.00 0.00 0.00 90 1011.5
20260831023049 56 212 3.0 7.0 0.00 0.00 0.00 90 1011.5
20260831022533 56 189 3.0 6.0 0.00 0.00 0.00 90 1011.6
20260831022033 56 212 3.0 6.0 0.00 0.00 0.00 90 1011.5
20260831021554 56 205 2.0 7.0 0.00 0.00 0.00 90 1011.6
20260831021036 56 237 3.0 7.0 0.00 0.00 0.00 90 1011.7
20260831020537 56 241 2.0 7.0 0.00 0.00 0.00 90 1011.7
20260831020056 56 203 4.0 7.0 0.00 0.00 0.00 90 1011.7
20260831015533 56 183 2.0 7.0 0.00 0.00 0.00 90 1011.7
20260831015035 56 224 3.0 7.0 0.00 0.00 0.00 90 1011.7
20260831014552 56 238 3.0 7.0 0.00 0.00 0.00 90 1011.7
20260831014033 56 203 3.0 8.0 0.00 0.00 0.00 90 1011.7
20260831013536 56 227 3.0 8.0 0.00 0.00 0.00 90 1011.8
20260831013101 56 208 3.0 7.0 0.00 0.00 0.00 90 1011.8
20260831012539 56 221 3.0 7.0 0.00 0.00 0.00 89 1011.9
20260831012036 57 202 3.0 7.0 0.00 0.00 0.00 89 1011.8
20260831011601 57 199 3.0 7.0 0.00 0.00 0.00 89 1011.9
20260831011035 57 228 3.0 7.0 0.00 0.00 0.00 89 1011.9
20260831010536 57 204 3.0 7.0 0.00 0.00 0.00 89 1011.9